TimeCST,TemperatureF,Dew PointF,Humidity,Sea Level PressureIn,VisibilityMPH,Wind Direction,Wind SpeedMPH,Gust SpeedMPH,PrecipitationIn,Events,Conditions,WindDirDegrees,DateUTC
12:15 AM,8.6,6.8,92,30.17,2.5,Calm,Calm,-,N/A,Snow,Light Snow,0,2012-12-25 06:15:00
12:35 AM,8.6,6.8,92,30.17,3.0,Calm,Calm,-,N/A,Snow,Light Snow,0,2012-12-25 06:35:00
12:55 AM,6.8,5.0,92,30.17,2.0,Calm,Calm,-,N/A,Snow,Light Snow,0,2012-12-25 06:55:00
1:15 AM,6.8,3.2,85,30.18,3.0,Calm,Calm,-,N/A,Snow,Light Snow,0,2012-12-25 07:15:00
1:35 AM,3.2,1.4,92,30.18,4.0,Calm,Calm,-,N/A,Snow,Light Snow,0,2012-12-25 07:35:00
1:55 AM,3.2,1.4,92,30.19,4.0,Calm,Calm,-,N/A,Snow,Light Snow,0,2012-12-25 07:55:00
2:15 AM,3.2,1.4,92,30.20,2.5,Calm,Calm,-,N/A,Snow,Light Snow,0,2012-12-25 08:15:00
2:35 AM,1.4,-0.4,92,30.21,10.0,Calm,Calm,-,N/A,,Clear,0,2012-12-25 08:35:00
2:55 AM,-0.4,-2.2,92,30.22,10.0,Calm,Calm,-,N/A,,Clear,0,2012-12-25 08:55:00
3:15 AM,1.4,-0.4,92,30.22,10.0,Calm,Calm,-,N/A,,Clear,0,2012-12-25 09:15:00
3:35 AM,-0.4,-4.0,85,30.23,10.0,Calm,Calm,-,N/A,,Clear,0,2012-12-25 09:35:00
3:55 AM,-0.4,-4.0,85,30.24,2.5,Calm,Calm,-,N/A,Snow,Light Snow,0,2012-12-25 09:55:00
4:15 AM,-2.2,-5.8,85,30.25,10.0,Calm,Calm,-,N/A,,Unknown,0,2012-12-25 10:15:00
4:35 AM,-2.2,-5.8,85,30.25,7.0,Calm,Calm,-,N/A,,Unknown,0,2012-12-25 10:35:00
4:55 AM,-0.4,-4.0,85,30.26,7.0,Calm,Calm,-,N/A,Snow,Light Snow,0,2012-12-25 10:55:00
5:15 AM,-2.2,-5.8,85,30.26,2.0,Calm,Calm,-,N/A,Snow,Light Snow,0,2012-12-25 11:15:00
5:35 AM,-2.2,-5.8,85,30.28,4.0,Calm,Calm,-,N/A,,Mist,0,2012-12-25 11:35:00
5:55 AM,-2.2,-5.8,85,30.28,7.0,Calm,Calm,-,N/A,,Unknown,0,2012-12-25 11:55:00
6:15 AM,-2.2,-5.8,85,30.29,7.0,Calm,Calm,-,N/A,,Unknown,0,2012-12-25 12:15:00
6:35 AM,-4.0,-7.6,85,30.29,10.0,Calm,Calm,-,N/A,,Unknown,0,2012-12-25 12:35:00
6:55 AM,-4.0,-7.6,85,30.30,10.0,Calm,Calm,-,N/A,,Unknown,0,2012-12-25 12:55:00
7:15 AM,-5.8,-9.4,84,30.30,10.0,Calm,Calm,-,N/A,,Unknown,0,2012-12-25 13:15:00
7:35 AM,-5.8,-9.4,84,30.31,10.0,Calm,Calm,-,N/A,,Unknown,0,2012-12-25 13:35:00
7:55 AM,-5.8,-9.4,84,30.31,10.0,Calm,Calm,-,N/A,,Unknown,0,2012-12-25 13:55:00
8:15 AM,-5.8,-9.4,84,30.32,10.0,Calm,Calm,-,N/A,,Unknown,0,2012-12-25 14:15:00
8:35 AM,-4.0,-7.6,85,30.33,10.0,Calm,Calm,-,N/A,,Unknown,0,2012-12-25 14:35:00
8:55 AM,-0.4,-4.0,85,30.34,10.0,Calm,Calm,-,N/A,,Unknown,0,2012-12-25 14:55:00
9:15 AM,1.4,-2.2,85,30.34,10.0,Calm,Calm,-,N/A,,Unknown,0,2012-12-25 15:15:00
9:35 AM,3.2,-0.4,85,30.34,10.0,Calm,Calm,-,N/A,,Unknown,0,2012-12-25 15:35:00
9:55 AM,3.2,1.4,92,30.35,10.0,Calm,Calm,-,N/A,,Unknown,0,2012-12-25 15:55:00
10:15 AM,5.0,3.2,92,30.35,10.0,Calm,Calm,-,N/A,Snow,Light Snow,0,2012-12-25 16:15:00
10:35 AM,6.8,3.2,85,30.36,10.0,Calm,Calm,-,N/A,,Overcast,0,2012-12-25 16:35:00
10:55 AM,6.8,3.2,85,30.35,7.0,Calm,Calm,-,N/A,Snow,Light Snow,0,2012-12-25 16:55:00
11:15 AM,6.8,5.0,92,30.35,5.0,Calm,Calm,-,N/A,Snow,Light Snow,0,2012-12-25 17:15:00
11:35 AM,8.6,6.8,92,30.34,1.5,Calm,Calm,-,N/A,Snow,Light Snow,0,2012-12-25 17:35:00
11:55 AM,10.4,6.8,85,30.33,4.0,Calm,Calm,-,N/A,Snow,Light Snow,0,2012-12-25 17:55:00
12:15 PM,10.4,8.6,92,30.33,5.0,Calm,Calm,-,N/A,Snow,Light Snow,0,2012-12-25 18:15:00
12:35 PM,10.4,8.6,92,30.32,10.0,NE,3.5,-,N/A,Snow,Light Snow,40,2012-12-25 18:35:00
12:55 PM,12.2,10.4,92,30.32,10.0,Calm,Calm,-,N/A,,Scattered Clouds,0,2012-12-25 18:55:00
1:15 PM,14.0,10.4,86,30.33,10.0,Calm,Calm,-,N/A,,Clear,0,2012-12-25 19:15:00
1:35 PM,14.0,10.4,86,30.33,10.0,Calm,Calm,-,N/A,,Clear,0,2012-12-25 19:35:00
1:55 PM,15.8,8.6,73,30.33,10.0,Calm,Calm,-,N/A,,Clear,0,2012-12-25 19:55:00
2:15 PM,15.8,8.6,73,30.33,10.0,Calm,Calm,-,N/A,,Clear,0,2012-12-25 20:15:00
2:35 PM,15.8,8.6,73,30.34,10.0,Calm,Calm,-,N/A,,Clear,0,2012-12-25 20:35:00
2:55 PM,17.6,8.6,68,30.34,10.0,Calm,Calm,-,N/A,,Clear,0,2012-12-25 20:55:00
3:15 PM,17.6,8.6,68,30.34,10.0,Calm,Calm,-,N/A,,Clear,0,2012-12-25 21:15:00
3:35 PM,17.6,8.6,68,30.33,10.0,Calm,Calm,-,N/A,,Clear,0,2012-12-25 21:35:00
3:55 PM,17.6,8.6,68,30.33,10.0,Calm,Calm,-,N/A,,Clear,0,2012-12-25 21:55:00
4:15 PM,15.8,8.6,73,30.32,10.0,Calm,Calm,-,N/A,,Clear,0,2012-12-25 22:15:00
4:55 PM,10.4,6.8,85,30.34,10.0,Calm,Calm,-,N/A,,Unknown,0,2012-12-25 22:55:00
5:15 PM,8.6,6.8,92,30.34,10.0,Calm,Calm,-,N/A,,Clear,0,2012-12-25 23:15:00
5:35 PM,6.8,3.2,85,30.34,10.0,Calm,Calm,-,N/A,,Clear,0,2012-12-25 23:35:00
5:55 PM,6.8,5.0,92,30.35,10.0,Calm,Calm,-,N/A,,Clear,0,2012-12-25 23:55:00
6:35 PM,3.2,1.4,92,30.37,10.0,Calm,Calm,-,N/A,,Clear,0,2012-12-26 00:35:00
6:55 PM,3.2,-0.4,85,30.38,10.0,Calm,Calm,-,N/A,,Clear,0,2012-12-26 00:55:00
7:15 PM,1.4,-2.2,85,30.38,10.0,Calm,Calm,-,N/A,,Clear,0,2012-12-26 01:15:00
7:35 PM,1.4,-2.2,85,30.38,10.0,Calm,Calm,-,N/A,,Clear,0,2012-12-26 01:35:00
7:55 PM,1.4,-0.4,92,30.38,10.0,Calm,Calm,-,N/A,,Clear,0,2012-12-26 01:55:00
8:15 PM,-2.2,-5.8,85,30.38,10.0,Calm,Calm,-,N/A,,Unknown,0,2012-12-26 02:15:00
8:35 PM,-2.2,-5.8,85,30.37,10.0,Calm,Calm,-,N/A,,Unknown,0,2012-12-26 02:35:00
8:55 PM,-2.2,-5.8,85,30.37,10.0,Calm,Calm,-,N/A,,Unknown,0,2012-12-26 02:55:00
9:15 PM,-2.2,-5.8,85,30.36,10.0,Calm,Calm,-,N/A,,Clear,0,2012-12-26 03:15:00
10:15 PM,-4.0,-7.6,85,30.35,10.0,Calm,Calm,-,N/A,,Unknown,0,2012-12-26 04:15:00
10:35 PM,-4.0,-7.6,85,30.35,10.0,Calm,Calm,-,N/A,,Unknown,0,2012-12-26 04:35:00
10:55 PM,-4.0,-7.6,85,30.35,10.0,Calm,Calm,-,N/A,,Unknown,0,2012-12-26 04:55:00
11:15 PM,-4.0,-7.6,85,30.34,5.0,Calm,Calm,-,N/A,,Mist,0,2012-12-26 05:15:00
11:35 PM,-5.8,-9.4,84,30.33,10.0,Calm,Calm,-,N/A,,Unknown,0,2012-12-26 05:35:00
11:55 PM,-7.6,-9.4,92,30.33,10.0,Calm,Calm,-,N/A,,Unknown,0,2012-12-26 05:55:00